sat.trackr.live / text

‹ back to catalog

HONGYAN 1 (CHONGQING)

NORAD 43914 · 2018-112F

PAYLOAD ACTIVE UNKNOWN

§ Identity

Operator
Country
PRC
Launch date
2018-12-29
Launch site
JSC
Launch vehicle
Mass (kg)
RCS (m²)

External: N2YO · Heavens-Above · Gunter

§ Orbital elements

Epoch: 2026-09-15T17:51:34.147872Z

Period
107.16 min
Inclination
50.0068°
Eccentricity
0.0006673
Mean motion
13.43824800 rev/d
Perigee alt
1,090.1 km
Apogee alt
1,100.1 km
Semi-major
7,473.2 km
B*
5.6333e-5
RAAN
263.9320°
Arg perigee
173.8838°
Mean anomaly
186.2123°
Rev number
37,871

§ Raw data

HONGYAN 1 (CHONGQING)1 43914U 18112F   26258.74414523 -.00000096  00000+0  56333-4 0  99962 43914  50.0068 263.9320 0006673 173.8838 186.2123 13.43824800378719

JSON: /api/v1/satellites/43914 · /tle

For live sub-satellite position, see the globe view (requires WebGL).

§ Visibility from observer

Set your observer location to see the next 7 days of passes ≥ 10°. The values pass through the URL so the page stays shareable.

No JS? Fill the form by hand. The geolocation button needs JavaScript.

§ Radio — SatNOGS DB

ModeDescriptionDownlinkUplink
FM S-band telemetry 2.257 GHz

1 transmitter · refreshed weekly from db.satnogs.org